Location: Bonneuil
(46.1010°N, 2.9693°E)
Time: 13:47:47
(UTC+00:00)

Cosmos 1763 Rocket - Visible Passes

Search period start: 06 August 2020 00:00
Search period end: 16 August 2020 00:00
Orbit: 732 x 781 km, 74.0° (Epoch: 05 August)

Date Brightness Start Highest point End Pass type
(mag) Time Alt. Az. Time Alt. Az. Time Alt. Az.
06 Aug 5.7 20:24:30 10° NNE 20:27:00 13° NE 20:29:29 10° ENE visible
06 Aug 3.5 22:04:31 10° NNW 22:09:52 70° ENE 22:10:49 57° ESE visible
06 Aug 5.5 23:47:43 10° NW 23:50:49 17° W 23:50:49 17° W visible
07 Aug 4.3 21:24:11 10° N 21:29:13 41° ENE 21:30:58 32° ESE visible
07 Aug 4.7 23:06:18 10° NW 23:10:52 30° W 23:10:58 30° WSW visible
08 Aug 4.9 20:44:01 10° N 20:48:25 25° NE 20:51:08 17° E visible
08 Aug 3.9 22:25:23 10° NNW 22:30:33 52° WSW 22:31:09 50° SW visible
09 Aug 5.5 20:04:10 10° N 20:07:29 16° NE 20:10:46 10° E visible
09 Aug 3.4 21:44:44 10° NNW 21:50:06 89° ENE 21:51:21 55° SSE visible
09 Aug 5.8 23:28:50 10° WNW 23:31:05 13° W 23:31:22 13° W visible
10 Aug 3.9 21:04:18 10° NNW 21:09:31 53° ENE 21:11:34 34° ESE visible
10 Aug 5.1 22:46:51 10° NW 22:50:57 23° W 22:51:35 22° WSW visible
11 Aug 4.6 20:24:03 10° N 20:28:47 32° ENE 20:31:50 19° ESE visible
11 Aug 4.4 22:05:45 10° NW 22:10:42 40° WSW 22:11:51 35° SW visible
12 Aug 5.2 19:44:01 10° N 19:47:55 20° NE 19:51:48 10° E visible
12 Aug 3.6 21:25:00 10° NNW 21:30:19 71° WSW 21:32:08 41° S visible
13 Aug 3.6 20:44:27 10° NNW 20:49:47 68° ENE 20:52:27 30° SE visible
13 Aug 5.5 22:27:35 10° NW 22:31:00 18° W 22:32:29 16° WSW visible
14 Aug 4.2 20:04:07 10° N 20:09:08 40° ENE 20:12:49 17° ESE visible
14 Aug 4.9 21:46:12 10° NW 21:50:49 31° W 21:52:50 23° SW visible
15 Aug 4.9 19:23:58 10° N 19:28:20 25° NE 19:32:40 10° ESE visible
15 Aug 4.1 21:05:18 10° NNW 21:10:29 54° WSW 21:13:14 26° S visible
